Theta_e
324 323 323 322 322 323 322 321 319 315 313 312 314 314 313 312 314 317 319 321 321 321 320 320 320 320 319 319 319 320 320 320 321 320 321 321 321 320 316 317 320 323 326 328 331 334 336 338 336 337 336 337 336 335 335 334 333 332 332 330 329 329 327 326 328 328 328 329 332 331 332 333 333 333 333 333 333 333 333 333 339 339 340 340 340
325 323 322 322 322 322 322 321 319 316 312 311 313 313 312 313 314 317 319 321 321 321 319 319 319 319 318 318 319 319 320 319 320 320 321 321 320 321 317 317 319 321 324 326 328 331 335 336 337 337 336 337 337 336 335 335 334 333 332 331 331 329 329 326 328 329 329 330 332 332 332 333 333 333 333 333 333 335 335 335 340 339 340 339 339
325 324 323 323 322 322 321 320 319 316 312 311 314 314 313 313 315 316 319 320 320 320 319 319 319 318 318 318 318 319 319 319 319 320 320 320 321 321 321 317 317 319 321 324 326 329 332 333 335 337 338 336 337 336 334 336 335 334 333 330 331 330 329 329 329 330 330 332 331 333 332 332 333 332 333 334 334 336 337 337 340 340 340 338 338
326 325 324 322 321 321 320 319 318 316 313 312 314 314 313 314 316 318 320 321 320 320 319 318 318 318 318 318 318 318 318 319 318 319 319 320 320 321 322 320 318 317 319 321 323 326 329 332 333 336 337 337 337 336 335 335 335 334 336 335 333 333 332 329 330 330 332 331 332 332 333 333 333 334 333 334 335 336 337 338 340 340 340 339 338
325 325 323 322 321 320 320 319 318 317 313 313 315 315 313 314 315 317 318 319 318 318 318 318 317 317 317 317 317 318 319 318 319 319 318 319 319 320 320 321 321 319 319 318 320 323 327 330 331 334 336 337 337 337 336 335 335 334 335 335 334 333 333 331 330 329 330 333 332 333 334 334 335 336 335 334 335 336 337 339 339 339 340 339 339
325 325 323 322 321 320 319 318 318 317 314 313 313 313 312 312 314 314 315 316 316 317 316 316 316 316 316 317 317 317 318 318 318 318 317 318 319 320 320 321 319 321 320 319 319 321 324 327 329 331 334 336 335 335 336 336 336 335 336 335 334 333 333 333 331 332 332 333 332 333 333 335 336 335 335 336 335 337 337 339 339 338 339 339 339
325 324 322 322 320 319 319 318 318 317 314 312 312 312 312 313 313 313 315 315 316 317 316 316 316 315 316 316 316 317 318 318 317 318 317 317 318 319 320 320 319 320 319 321 320 320 321 323 326 328 330 332 336 336 337 336 335 335 336 335 334 334 331 331 331 332 332 333 333 332 333 334 333 332 332 334 334 336 338 339 338 338 338 338 340
324 324 322 321 320 319 318 318 318 316 314 312 312 312 312 313 313 314 314 314 315 315 315 316 316 315 315 315 316 315 316 316 316 317 318 317 318 319 319 320 318 317 316 320 320 321 319 320 322 325 326 327 332 334 336 336 336 336 335 336 335 335 333 334 333 332 332 332 331 331 332 333 332 331 332 332 335 336 337 338 338 338 338 339 339
323 322 322 321 320 319 318 318 317 315 314 312 311 312 312 313 313 313 314 313 314 315 314 315 315 315 315 315 315 315 316 316 315 316 317 317 317 318 318 319 316 313 319 319 320 321 320 318 321 323 322 323 327 334 335 334 335 335 335 336 335 336 335 335 336 336 334 334 334 333 334 335 335 335 335 336 336 337 338 338 338 338 339 339 339
322 321 321 321 320 319 319 317 316 315 313 312 311 312 313 312 312 313 313 313 312 313 314 314 315 315 314 314 314 314 315 315 315 312 315 315 316 317 317 318 318 318 318 318 319 319 321 321 320 322 321 320 324 329 333 335 335 335 335 334 333 334 335 334 335 336 336 335 335 334 334 335 335 335 336 336 337 338 338 338 338 339 339 339 339
320 320 320 320 319 319 318 317 316 315 313 312 311 313 313 312 312 312 314 313 312 314 314 315 315 314 314 313 313 313 314 314 314 314 313 315 314 314 318 318 317 316 317 318 319 319 320 322 323 325 327 319 321 325 329 330 335 335 334 334 334 333 334 335 336 336 334 333 335 336 335 335 335 336 336 336 337 338 338 339 339 339 339 339 339
319 319 319 319 318 318 318 317 315 315 313 311 310 311 312 312 312 313 312 312 313 314 315 314 314 313 312 313 313 313 313 313 314 314 314 313 314 314 316 317 318 317 316 318 319 319 319 320 320 323 325 323 319 322 325 327 331 334 335 335 335 335 335 336 337 336 335 334 335 335 334 334 335 335 335 336 337 338 338 338 338 338 339 339 338
318 319 318 317 318 318 317 316 315 314 313 311 311 312 313 313 312 313 312 311 311 313 314 315 313 311 313 312 313 313 312 312 312 313 313 314 312 314 315 317 318 319 316 316 317 318 319 319 320 322 323 325 326 323 322 325 326 333 335 335 336 336 336 336 335 335 335 335 334 334 334 334 334 335 335 334 335 336 336 336 337 337 337 337 338
317 318 317 317 317 316 316 315 314 314 314 313 312 312 313 312 313 311 312 311 310 312 313 313 310 308 309 310 309 309 308 309 309 310 312 313 313 313 313 315 316 316 316 317 317 317 318 319 320 320 321 322 324 327 328 329 328 327 332 335 335 335 335 335 335 335 334 334 333 334 334 335 335 335 335 335 335 334 335 336 336 335 335 337 337
318 317 317 317 317 316 315 315 314 314 313 311 311 311 312 312 313 309 309 312 312 313 312 312 309 310 310 304 304 305 306 305 307 308 309 312 312 313 312 312 313 315 314 314 317 316 315 318 319 320 319 319 322 323 326 326 326 326 329 331 334 335 335 334 333 334 334 333 333 333 333 334 335 335 334 334 335 335 334 336 336 335 335 335 335
318 317 316 317 317 316 316 315 314 314 313 311 310 310 311 312 312 310 311 308 310 309 312 312 311 308 303 304 305 303 301 305 305 306 306 308 310 311 311 311 312 314 315 315 314 313 315 318 318 319 317 318 320 322 324 326 326 326 330 330 332 333 334 335 334 334 333 333 333 333 333 334 334 334 335 335 334 335 335 335 335 334 334 334 334
316 316 315 316 316 316 315 315 314 313 314 312 310 310 312 312 312 311 311 309 308 310 309 310 310 310 308 303 301 300 302 304 305 303 305 305 307 309 311 310 310 313 314 313 313 313 314 317 319 319 317 317 319 320 323 325 327 325 330 331 333 333 334 336 335 335 334 334 333 333 333 334 334 334 334 334 334 334 334 334 334 334 334 334 334
316 316 315 315 315 315 315 314 314 312 313 312 311 310 311 312 312 312 311 310 310 310 308 308 310 309 308 306 306 306 304 305 305 302 303 306 308 308 309 309 310 312 314 315 314 315 314 313 315 318 317 315 315 316 319 323 323 326 328 331 333 333 333 333 334 335 335 334 333 333 333 333 333 334 334 333 333 334 334 333 334 334 334 333 333
315 316 315 314 315 315 315 314 313 313 312 312 310 310 311 312 313 312 312 311 311 308 309 307 307 307 307 307 307 306 306 304 303 303 302 304 305 305 306 308 309 310 312 314 315 315 316 315 314 317 317 314 314 313 317 320 323 323 323 326 332 332 333 333 334 334 334 334 333 332 332 333 333 333 333 333 333 333 333 333 333 333 333 334 334
314 315 314 314 314 314 314 314 312 312 311 311 310 310 311 313 313 313 313 312 311 308 309 309 305 307 307 305 305 306 307 306 306 305 304 302 303 305 305 306 306 308 310 312 312 314 315 316 316 317 318 315 314 314 314 317 321 324 322 321 331 332 332 332 333 333 333 333 332 332 332 332 333 333 333 333 333 333 333 333 333 333 331 331 332
314 314 314 314 313 314 313 312 311 311 310 311 311 310 310 311 311 312 312 311 310 310 310 309 308 309 306 305 306 306 305 306 305 306 303 302 304 304 305 307 307 307 307 308 309 311 312 314 314 314 316 317 314 315 315 318 318 322 317 317 326 332 331 331 332 332 333 333 332 332 332 332 332 332 332 332 332 333 332 332 333 332 332 331 332
312 312 313 313 313 313 312 312 311 311 309 311 311 310 310 311 311 312 312 311 311 310 309 310 309 310 309 308 306 305 305 304 304 304 304 304 302 304 305 304 304 306 307 307 308 308 310 311 313 315 316 318 319 317 318 318 314 317 312 310 319 329 332 331 332 332 332 332 332 331 331 331 332 332 331 332 332 332 332 332 332 332 332 331 331
311 311 312 312 312 312 311 311 311 311 309 310 310 309 309 310 311 312 312 311 311 311 310 310 309 309 309 309 308 307 306 305 305 305 305 304 302 302 304 304 304 304 307 306 307 308 308 309 310 313 316 319 320 319 319 320 311 303 301 305 312 321 330 331 331 331 332 332 331 330 330 331 331 331 331 331 331 332 332 332 332 332 332 332 332
310 310 311 312 311 311 311 311 310 310 309 310 310 310 309 310 310 310 311 312 312 311 311 310 309 309 309 309 308 310 309 308 308 307 305 305 304 304 304 304 304 304 307 306 308 307 308 309 309 311 314 317 318 319 320 321 313 295 306 305 308 316 326 330 331 331 331 330 330 330 330 330 331 331 330 331 331 331 331 331 331 332 332 332 332
309 309 310 310 310 310 309 309 309 309 309 309 310 309 309 309 309 310 310 311 311 311 309 310 310 308 308 309 309 310 309 310 310 308 307 307 306 303 305 303 302 304 305 303 306 307 308 307 308 309 310 312 315 317 319 319 319 299 297 310 304 311 320 327 330 331 330 328 328 327 328 329 330 330 330 330 330 330 330 330 331 331 331 331 330
308 309 310 310 310 310 310 310 310 309 309 309 309 309 309 308 309 309 310 311 311 311 310 311 311 310 310 309 309 309 309 310 309 308 307 306 303 303 304 303 302 303 305 304 304 305 307 307 307 307 308 309 311 314 315 315 316 297 294 305 311 306 313 320 323 328 330 330 327 328 328 328 329 329 330 330 330 330 330 330 330 330 330 330 330
309 309 310 309 310 310 310 309 309 309 308 309 309 309 308 308 308 309 310 310 310 311 310 311 311 310 310 310 310 310 309 309 309 308 308 307 306 306 304 301 302 302 302 304 304 303 305 307 305 306 307 308 309 311 313 314 305 295 295 317 320 304 310 314 319 323 325 328 330 328 327 327 327 327 329 330 329 329 329 329 329 329 330 330 330
310 309 309 309 309 309 309 309 309 309 308 308 308 308 308 307 307 308 308 310 310 310 310 311 311 311 311 311 310 309 310 309 309 309 308 309 308 307 306 304 301 300 302 302 303 304 304 304 306 305 306 307 307 308 303 304 311 296 297 317 320 317 305 309 314 318 320 322 326 328 329 325 326 326 326 328 328 328 328 328 328 328 329 329 330
309 309 309 309 309 309 308 308 308 309 308 308 308 307 307 307 307 307 308 309 309 309 309 309 310 311 310 310 309 309 309 309 309 309 309 309 309 308 307 305 304 300 301 299 302 302 304 304 304 305 306 306 307 307 307 310 303 304 313 314 317 320 307 305 308 312 313 314 318 323 326 328 326 325 326 327 327 327 327 327 328 328 329 329 330
309 309 308 308 308 306 308 308 308 308 307 307 307 307 307 306 307 307 308 309 308 309 309 309 309 310 309 309 309 308 310 309 308 308 308 308 308 308 307 307 306 303 302 300 301 303 303 302 304 305 305 305 305 306 307 308 297 304 310 312 314 316 298 302 304 307 309 310 314 318 322 325 326 328 327 325 325 326 326 326 326 325 326 327 328
307 307 307 307 307 307 307 307 307 307 307 307 307 306 306 306 306 307 307 308 307 307 309 309 309 309 308 308 309 308 310 308 308 308 308 308 307 307 307 307 307 306 304 303 299 305 305 304 304 304 304 304 303 305 307 308 302 303 308 310 312 299 295 306 300 303 305 307 309 312 316 320 322 324 325 326 327 325 325 325 324 324 324 325 327
307 307 307 306 306 306 306 307 307 306 306 306 306 306 306 306 306 306 306 307 306 307 308 308 309 309 308 308 308 308 309 308 307 308 307 307 308 307 307 306 306 306 305 304 301 302 303 304 304 303 303 304 304 305 307 309 300 297 307 307 307 297 308 312 301 300 302 304 306 308 310 313 315 317 319 321 321 323 325 326 326 325 325 326 325
307 306 306 306 306 306 306 306 306 306 306 305 305 305 305 305 306 306 306 306 305 306 307 307 308 308 308 307 308 308 309 307 307 307 306 306 306 306 307 306 305 305 305 304 302 302 305 305 305 306 302 303 304 305 305 306 307 305 301 306 305 306 308 309 311 302 301 302 303 304 305 307 308 310 311 313 315 316 317 318 321 323 321 318 318
307 306 306 306 306 306 306 306 306 306 306 305 305 305 304 304 305 305 306 304 304 305 306 306 306 307 307 307 307 307 308 307 307 306 306 306 305 305 305 305 304 305 305 305 303 302 302 303 303 303 302 301 303 304 304 305 306 305 306 306 305 304 305 307 307 309 299 300 300 302 303 305 305 305 306 307 309 310 310 311 310 310 311 314 314
306 306 306 306 306 306 306 306 306 305 305 305 305 304 304 304 304 305 305 304 304 304 304 305 305 306 305 306 306 307 307 306 306 306 306 306 305 305 305 305 304 304 305 305 304 302 302 303 306 303 303 301 302 304 303 303 302 301 302 305 303 304 304 304 305 307 300 299 299 300 302 303 303 304 304 305 305 306 306 307 308 308 308 309 311
305 306 306 306 306 306 306 305 306 305 305 305 305 304 304 304 304 304 304 304 304 304 304 305 305 305 305 305 305 306 306 304 305 305 305 306 305 305 305 305 304 304 304 304 305 303 303 302 304 303 304 302 302 302 301 299 300 302 301 301 302 303 303 304 303 304 302 297 297 298 299 300 301 302 302 303 304 304 304 305 305 305 305 306 306
305 305 305 306 305 305 305 305 305 305 305 305 304 304 304 305 305 304 304 303 303 304 304 305 301 305 304 304 305 306 305 304 304 304 305 304 305 304 304 304 304 305 304 303 303 304 303 302 303 304 302 301 301 301 300 301 301 300 299 300 301 301 302 303 302 302 297 295 295 296 297 297 299 299 300 301 302 303 303 303 303 302 301 301 301
305 305 305 305 305 305 305 305 306 305 305 305 305 304 304 304 304 305 304 304 303 303 304 304 304 304 304 304 305 305 304 303 304 304 304 304 304 304 304 304 304 304 303 302 302 302 302 302 302 302 303 301 300 300 300 299 300 300 300 301 300 300 300 301 302 302 301 301 302 304 299 300 299 299 299 300 300 301 301 301 301 300 299 300 301
304 304 304 304 304 305 305 305 305 305 305 305 305 304 304 304 304 304 304 304 303 303 304 304 304 304 304 304 304 304 304 304 304 304 304 304 304 304 304 304 304 303 302 301 301 300 300 300 301 301 301 302 301 300 296 298 298 298 298 299 300 301 300 299 300 302 300 301 299 294 296 296 294 296 298 297 298 298 299 300 300 298 298 299 301
304 304 304 304 304 304 305 305 305 305 305 304 304 304 304 304 304 304 304 303 303 303 303 303 304 303 303 303 304 304 304 304 304 305 304 303 304 303 303 304 303 302 301 301 300 300 299 299 299 299 300 300 300 300 297 296 296 296 297 298 298 299 300 300 299 299 300 299 300 301 296 295 295 295 294 296 296 297 297 297 297 297 296 298 299
303 304 304 304 303 303 304 304 304 304 304 304 304 304 304 304 304 303 303 303 303 302 302 302 303 303 303 303 303 304 303 297 296 298 299 298 304 302 303 303 302 302 301 301 300 299 299 298 298 299 298 298 299 299 297 296 297 299 297 297 297 298 298 297 299 299 299 298 299 299 300 301 300 300 301 301 302 299 299 296 297 296 295 298 299
302 303 303 303 303 303 303 303 303 304 304 305 299 296 298 303 304 304 303 303 303 302 302 301 301 302 302 302 302 295 293 292 292 293 294 294 296 301 303 302 302 301 301 300 299 299 299 298 298 297 296 297 298 299 299 300 300 298 296 296 295 297 297 297 298 299 299 297 297 297 299 300 299 299 300 300 302 301 301 302 302 301 299 299 299
301 301 301 301 301 302 302 302 302 302 303 302 295 296 297 297 302 303 303 302 303 302 302 301 301 300 301 301 302 295 293 290 294 291 293 293 293 294 295 296 297 302 301 300 299 300 299 299 299 299 298 298 299 299 299 299 298 298 298 298 297 297 296 295 295 296 296 298 296 296 298 299 298 297 299 299 300 301 301 301 298 296 296 297 298
299 299 299 300 300 301 301 301 301 301 302 295 294 295 295 295 296 303 303 303 302 302 302 301 301 300 299 299 300 299 298 298 298 296 293 291 292 292 292 293 293 295 296 301 300 299 299 299 299 299 299 299 299 298 297 297 297 296 296 296 296 296 295 295 295 295 295 297 296 295 295 299 297 297 296 298 299 300 300 298 297 296 297 297 297
298 297 298 298 299 299 300 300 299 300 300 294 294 294 294 295 295 298 303 302 301 301 301 301 301 300 299 298 298 298 299 291 293 298 297 295 290 290 290 290 291 292 294 294 295 301 302 300 300 299 299 299 297 297 298 297 298 296 296 295 295 295 295 295 295 296 295 295 295 294 293 297 297 295 295 297 298 299 299 296 295 295 296 296 296
297 297 297 298 298 298 298 298 299 299 299 292 293 293 294 294 294 296 302 302 301 301 300 300 300 299 299 298 298 297 298 296 297 298 298 297 296 294 294 295 296 292 290 291 291 290 294 300 299 298 299 299 298 298 298 298 296 295 295 295 295 294 294 294 296 295 296 295 294 293 292 295 297 296 294 296 298 298 298 297 296 296 296 296 296
296 296 297 297 297 297 297 297 297 296 297 291 292 293 293 294 294 295 301 300 299 299 299 298 299 298 298 299 298 297 298 296 296 296 297 297 297 296 296 295 296 296 296 296 296 297 297 298 298 298 298 298 298 298 297 297 297 297 297 296 296 295 295 294 294 294 294 296 294 292 290 294 296 294 295 296 298 297 297 297 296 296 296 296 296
297 297 296 296 294 294 294 295 294 293 293 290 291 292 293 294 293 297 298 298 297 296 295 296 296 296 296 298 298 298 296 296 291 290 293 297 297 295 295 295 295 295 296 293 291 292 295 297 297 297 297 297 294 296 296 296 296 296 295 295 294 292 292 291 290 293 293 295 295 293 291 292 295 293 294 295 296 295 296 296 295 295 295 296 296
292 292 292 292 292 291 291 292 292 291 291 290 291 292 293 293 293 296 294 293 292 291 290 291 293 294 294 296 297 295 295 294 289 290 291 292 296 295 294 294 293 294 293 291 289 289 289 289 289 290 290 291 292 292 292 292 292 295 294 291 290 292 290 288 289 291 291 294 294 293 292 290 293 293 292 293 294 293 294 294 295 295 295 295 295
291 291 290 289 290 290 290 291 292 290 289 288 290 291 292 292 292 292 292 291 290 289 289 290 291 290 288 286 290 293 292 291 289 290 291 293 295 295 294 293 292 292 290 290 290 290 288 288 289 289 290 290 290 291 292 293 292 292 293 289 292 292 289 290 288 290 291 292 292 293 289 290 292 292 289 290 292 291 290 291 294 294 294 294 294
289 289 289 288 288 289 289 289 286 288 288 288 289 291 291 291 291 293 292 291 289 288 288 287 289 289 289 287 287 290 290 290 289 290 290 291 293 292 292 291 291 290 289 290 290 290 290 290 290 290 290 288 290 292 292 288 289 290 294 293 293 291 289 289 289 289 287 289 291 291 288 289 289 290 290 288 287 290 290 289 289 290 290 292 293
Wind_Speed
10 9 9 10 9 9 7 7 6 6 6 6 5 5 5 5 5 5 5 5 4 4 4 3 3 2 2 2 3 3 3 3 3 3 4 4 4 7 12 12 14 16 18 18 19 19 20 22 21 19 15 14 11 7 5 4 4 4 2 1 3 4 3 3 13 7 2 2 4 5 5 6 9 8 8 8 8 6 7 11 13 13 13 13 15
10 9 10 10 10 9 8 7 7 6 6 6 6 5 5 5 5 5 5 5 4 4 3 3 3 2 2 2 2 3 2 2 3 3 4 4 3 6 8 11 13 16 17 19 18 19 20 20 22 20 18 15 13 10 6 5 4 3 3 3 5 5 1 1 5 9 2 1 4 5 5 6 8 9 11 11 10 9 11 16 15 13 13 14 15
10 10 9 9 9 8 8 7 7 7 6 6 5 6 5 5 5 5 5 5 5 4 4 3 3 3 2 3 2 3 2 2 2 3 3 4 4 5 7 9 10 14 16 18 18 19 20 20 21 22 21 17 15 12 9 6 5 4 3 4 4 4 4 2 1 8 5 1 2 5 6 7 5 6 9 9 8 8 12 15 11 11 13 14 15
11 10 10 9 9 9 8 8 8 7 6 6 6 5 5 5 5 5 5 4 4 4 4 4 3 3 2 2 2 3 2 2 2 2 3 4 4 4 6 8 8 11 14 15 18 18 19 20 20 21 22 19 15 16 14 9 9 9 9 8 5 4 2 4 3 7 8 2 2 4 5 6 3 5 7 5 5 7 11 12 9 8 11 14 16
11 11 10 9 9 8 8 8 8 7 6 7 6 5 5 5 5 4 5 4 4 4 3 4 4 3 3 2 3 2 2 2 2 2 3 3 4 4 5 6 7 9 12 13 15 17 19 20 20 21 21 22 18 18 17 15 13 11 10 10 9 10 8 7 7 4 8 4 1 1 6 5 3 5 6 4 5 8 9 9 7 7 9 13 14
10 11 10 9 9 9 9 8 8 7 6 6 6 6 6 6 6 6 5 6 5 5 4 5 4 3 3 2 3 2 2 2 2 2 2 3 3 4 4 6 6 6 9 11 12 14 18 19 20 21 21 21 20 17 16 14 14 14 15 15 12 11 12 12 7 8 7 5 4 5 6 6 6 6 4 7 5 6 9 10 9 8 8 10 11
11 10 10 10 9 9 9 8 8 7 6 6 7 6 6 7 6 7 6 6 5 5 5 4 4 3 3 3 3 2 3 2 2 2 2 2 3 4 4 5 6 6 7 8 10 11 14 17 18 20 21 20 22 20 17 18 17 16 15 16 13 14 13 8 9 10 15 14 8 6 6 8 9 6 5 4 6 9 11 9 8 7 8 11 11
13 10 10 10 9 9 9 8 9 7 7 7 7 7 7 6 7 7 6 6 5 5 4 5 4 4 3 3 3 2 3 2 2 2 1 2 2 3 3 5 5 5 6 7 8 9 11 15 16 15 19 19 20 21 20 17 16 16 17 15 15 12 11 12 13 11 13 14 10 5 6 9 8 7 6 4 8 11 11 10 8 7 9 11 11
13 13 9 10 10 9 8 9 8 8 7 7 8 7 7 6 6 7 7 6 6 6 5 5 4 3 3 3 3 3 3 2 2 2 2 2 2 2 3 4 4 5 6 6 7 8 9 11 14 12 15 19 20 20 21 17 17 17 18 17 16 15 14 16 18 18 17 15 12 10 9 9 8 7 7 6 8 9 9 9 9 10 11 12 12
13 13 11 10 10 9 8 9 8 8 7 7 8 8 7 7 7 6 7 6 6 6 6 5 3 3 3 4 4 4 3 3 2 2 2 2 1 2 3 3 4 5 6 6 7 8 8 10 11 12 12 15 19 19 19 21 19 18 17 16 16 14 16 17 19 22 18 16 15 14 13 11 11 10 9 7 7 7 8 9 11 12 13 14 13
14 13 11 9 9 9 8 9 8 8 8 8 8 8 8 8 8 7 5 6 5 5 5 4 4 4 4 5 4 5 4 3 2 2 1 1 1 2 2 2 3 3 5 6 6 7 8 8 8 9 9 13 14 18 19 20 21 18 17 17 18 17 16 19 22 22 20 18 15 14 14 14 12 12 11 10 7 7 9 11 11 9 8 12 14
14 14 12 10 9 9 10 9 9 9 9 9 10 9 10 10 10 8 7 5 3 3 3 4 4 5 5 5 6 5 5 4 3 3 2 1 2 2 1 1 2 3 4 5 6 6 7 8 8 8 8 10 12 13 16 15 18 19 19 19 19 19 20 21 22 22 21 19 18 16 14 13 14 14 14 14 11 12 14 15 14 14 16 18 17
13 14 13 11 10 9 10 9 10 9 9 10 10 10 10 9 8 7 8 7 6 5 4 3 4 5 5 6 6 6 5 5 5 3 3 2 1 1 0 1 2 3 4 4 5 6 6 7 7 8 9 8 9 12 12 12 16 19 19 19 19 19 20 20 20 20 21 20 19 17 15 13 13 15 17 17 17 14 19 20 19 18 19 19 17
13 14 13 12 11 9 10 10 11 10 9 9 10 9 9 9 8 7 7 9 7 7 5 5 5 5 3 2 4 4 3 4 5 4 4 2 2 1 1 1 2 3 3 3 5 5 6 6 7 8 9 8 8 8 9 11 13 17 17 17 18 18 19 19 18 18 18 19 18 18 17 15 15 16 16 15 17 18 17 20 19 16 16 16 15
14 14 13 13 11 10 10 10 11 10 9 10 10 10 10 12 11 9 8 7 6 5 7 8 4 3 2 2 3 4 3 3 4 5 4 3 2 2 1 1 1 2 2 2 4 4 3 5 6 8 7 7 8 7 6 8 11 15 15 14 15 17 18 18 18 17 17 17 17 16 16 15 15 16 17 15 15 16 15 15 15 15 14 14 14
14 14 13 13 11 10 10 10 11 11 10 10 10 11 11 11 11 11 9 8 7 6 6 8 5 4 4 4 0 2 3 4 1 3 2 3 3 2 1 1 1 0 1 2 2 3 3 4 5 6 5 6 7 7 6 6 9 10 14 13 12 14 15 16 17 17 17 16 17 16 15 15 15 15 15 14 15 14 13 11 10 14 14 14 13
13 14 13 12 11 10 10 10 10 11 10 10 10 11 11 11 12 11 11 9 8 6 6 6 7 4 4 2 3 4 2 4 1 3 2 3 4 3 2 2 2 1 1 1 1 1 3 3 4 5 4 5 7 6 6 7 7 8 10 14 11 13 15 15 15 16 17 16 16 15 15 15 14 14 14 14 14 13 12 11 10 10 11 12 12
12 14 14 11 12 12 11 10 10 10 10 10 9 10 11 12 12 11 11 10 8 7 7 6 6 4 3 4 4 3 2 2 3 3 3 1 1 2 3 3 2 2 2 2 0 1 1 2 2 4 3 4 4 5 6 6 7 7 7 10 12 13 13 15 15 15 15 16 15 14 14 14 13 13 13 14 14 12 11 11 11 9 7 8 11
12 12 12 13 12 12 11 10 10 10 10 10 10 11 11 11 10 11 10 10 9 8 8 7 5 5 3 2 1 1 3 2 1 1 4 3 2 2 3 3 3 3 3 3 2 2 1 0 1 2 3 2 4 4 5 6 6 6 12 15 13 11 12 13 13 14 15 15 14 13 14 14 13 14 13 13 13 12 12 12 12 10 6 7 8
11 12 12 13 12 11 10 10 10 10 10 10 10 10 9 9 10 11 9 9 10 8 8 8 9 7 7 5 4 1 0 0 2 2 1 2 5 3 1 1 3 3 3 3 3 3 2 2 1 1 1 2 2 3 4 5 5 7 8 13 15 10 10 11 12 13 14 14 14 13 13 13 13 13 12 12 12 11 12 12 11 11 12 8 5
11 12 13 14 11 10 10 10 9 10 9 9 10 11 12 12 11 11 11 10 9 9 7 8 9 7 7 6 5 4 3 1 1 1 2 3 2 2 4 3 2 1 1 2 2 2 2 2 2 2 0 2 0 2 3 4 4 5 8 13 13 13 10 9 10 12 13 13 13 12 12 12 12 11 12 12 11 12 12 12 11 11 12 9 6
11 13 13 12 10 10 10 11 11 11 10 11 11 11 11 11 12 12 11 11 9 10 9 7 8 6 8 6 7 5 4 4 4 4 2 2 2 2 1 1 2 3 1 1 1 3 4 3 3 3 2 2 1 1 2 3 3 4 6 11 12 13 11 9 10 10 12 12 12 11 11 11 12 11 10 11 11 11 12 12 11 10 11 11 8
9 10 12 14 11 11 10 11 10 10 10 11 11 11 11 10 10 11 11 12 10 10 9 8 7 7 8 7 8 8 7 6 6 6 5 4 3 4 3 2 1 2 3 0 2 3 2 3 4 4 3 2 2 2 1 1 2 4 6 10 11 11 13 10 9 10 12 13 12 11 10 10 10 10 10 10 11 11 11 11 10 10 10 10 11
9 9 11 12 11 10 11 11 10 10 11 10 10 10 9 10 9 10 10 11 9 9 9 9 9 7 9 7 7 7 7 5 4 5 5 4 4 2 2 3 3 3 0 2 3 3 3 3 3 3 3 2 2 2 2 1 4 9 8 8 10 10 12 12 9 9 11 11 12 12 11 10 9 9 8 8 9 9 10 9 9 8 9 9 10
9 10 11 13 11 10 11 11 10 10 10 10 10 10 10 10 10 11 10 11 10 10 9 10 10 9 8 8 7 7 7 5 4 4 4 3 3 3 2 1 2 1 1 1 0 2 2 2 1 1 2 3 2 2 1 1 2 6 8 4 9 9 10 11 11 10 9 9 9 9 10 9 10 9 7 7 7 7 7 8 8 7 7 7 7
9 10 9 12 11 10 11 11 10 10 11 11 11 10 10 10 10 11 11 10 9 11 10 10 9 10 8 8 8 7 7 6 5 5 5 5 4 4 3 3 3 3 1 2 1 2 3 2 1 0 1 2 2 2 2 0 1 5 6 4 4 8 9 11 11 10 11 9 7 7 8 9 8 9 9 7 7 7 7 6 7 6 6 6 5
8 8 9 11 11 10 10 11 11 11 11 11 9 10 10 9 9 10 9 9 10 10 9 10 9 11 11 9 8 7 7 6 6 6 5 6 5 4 4 4 3 3 3 3 2 4 1 2 1 1 1 1 1 2 2 1 2 3 6 4 1 6 8 9 10 11 11 10 10 8 5 6 7 8 8 8 8 7 7 6 5 5 4 5 4
6 7 8 10 10 10 10 11 11 11 11 11 11 10 10 10 9 9 10 7 9 11 9 10 10 11 11 9 7 8 7 7 7 7 6 6 5 4 4 4 4 3 3 3 3 3 1 3 3 2 1 1 1 1 2 0 1 2 5 2 2 1 6 6 8 9 10 11 10 10 9 4 4 5 6 7 6 6 6 5 4 4 2 1 3
6 6 8 9 9 10 10 11 11 11 11 11 11 11 10 10 9 10 11 9 9 10 9 9 10 10 9 11 9 7 7 7 7 7 6 6 5 5 5 5 4 4 3 3 4 4 3 3 3 3 2 2 2 1 1 1 3 1 0 2 1 3 5 4 6 7 8 9 9 10 9 9 5 2 3 4 5 5 4 4 4 3 3 2 3
5 5 7 9 9 11 9 10 10 11 11 10 11 11 11 10 10 10 10 9 10 9 9 9 9 9 9 9 9 8 7 7 7 7 7 7 6 6 6 6 5 5 4 4 3 4 4 3 2 3 3 3 2 2 1 1 5 2 1 1 2 1 7 3 4 5 6 6 8 9 9 9 9 9 7 2 1 2 3 2 3 3 3 4 3
6 7 7 8 8 9 10 10 10 11 11 11 11 11 11 10 10 9 9 9 10 10 9 9 8 9 9 10 9 8 7 7 7 7 7 6 6 6 6 6 6 6 5 4 4 3 1 4 4 1 2 2 1 1 2 2 3 1 2 1 1 5 4 2 2 3 3 5 6 7 8 9 10 9 9 11 9 4 4 2 2 1 3 4 3
7 8 8 9 9 10 9 10 10 11 11 11 11 11 10 11 9 9 9 10 10 10 9 9 7 8 9 10 10 9 7 7 7 7 7 7 7 6 6 6 6 6 5 5 6 4 4 2 4 4 2 1 1 2 2 1 4 5 1 1 1 1 2 2 3 1 1 2 3 5 6 7 8 8 9 10 9 11 9 6 6 5 5 11 6
8 9 9 9 10 10 11 11 11 11 11 11 10 11 11 11 10 10 9 11 11 10 9 10 9 9 10 10 10 10 8 8 7 7 7 7 7 6 6 6 6 6 7 6 7 6 4 3 3 3 2 1 3 1 1 1 1 3 2 2 1 1 1 1 2 2 2 1 2 2 3 4 5 6 6 6 7 7 8 9 8 5 4 5 4
8 9 10 9 9 11 11 11 12 12 12 12 11 11 11 12 11 8 9 11 11 11 10 10 10 8 9 10 10 9 8 9 8 8 8 8 8 7 7 7 7 7 7 7 7 6 6 4 4 3 2 2 3 2 3 2 1 1 1 1 1 1 1 1 2 1 4 3 4 4 5 3 3 5 4 5 5 5 5 5 5 5 4 2 4
8 8 9 9 10 11 11 11 12 12 13 12 12 12 12 13 12 10 10 11 12 12 12 11 11 9 10 10 10 9 6 8 8 8 7 8 8 8 8 7 8 7 7 8 6 7 7 6 3 4 4 4 4 2 2 0 1 1 2 1 2 1 0 1 2 2 4 0 2 5 6 7 7 5 5 6 5 5 5 5 6 6 4 3 2
8 8 9 10 10 11 11 11 12 11 12 12 12 12 13 13 13 13 12 12 12 12 12 11 11 11 11 10 10 10 9 10 9 8 8 8 8 8 8 7 8 7 7 7 8 6 5 6 4 4 3 3 3 1 1 0 1 0 1 1 0 1 1 1 1 3 3 3 1 4 4 5 6 7 7 6 6 6 6 6 6 6 8 7 5
9 9 9 9 10 11 10 12 12 12 12 12 12 12 12 12 13 12 12 12 12 12 12 11 11 11 11 11 11 10 10 10 9 9 8 10 8 8 8 7 7 7 5 6 7 7 6 6 5 2 3 2 1 1 1 2 2 2 2 2 1 1 2 1 1 2 4 4 4 5 5 5 6 5 6 6 7 7 7 7 8 8 7 6 6
10 10 10 10 10 11 11 11 11 11 11 11 12 12 12 12 12 11 11 11 12 11 11 11 11 11 11 11 11 11 11 12 10 10 9 11 9 9 9 8 7 6 6 6 6 6 7 6 5 5 3 3 3 3 2 2 2 2 2 3 3 3 2 2 2 1 1 1 1 0 2 4 4 3 4 5 6 7 8 8 8 8 8 8 7
10 10 10 11 10 11 11 10 11 11 11 11 11 11 11 11 12 11 11 11 10 10 10 11 10 10 10 10 10 11 11 11 11 11 10 10 8 9 9 8 7 7 6 6 6 6 6 7 5 5 4 2 3 4 2 1 1 1 2 2 3 3 2 1 2 1 1 1 3 5 4 4 5 5 5 4 5 6 7 7 7 7 7 8 8
10 10 11 11 9 9 10 10 10 9 10 10 10 10 10 11 10 11 10 10 10 9 9 10 10 9 10 10 10 10 11 11 11 10 10 10 8 9 8 8 8 8 8 7 7 6 6 7 7 5 5 5 3 3 4 3 3 4 4 3 3 2 1 1 2 3 2 2 2 1 4 4 5 6 7 7 8 8 7 7 9 10 10 10 9
7 8 8 8 9 9 8 8 9 8 9 9 9 10 11 11 10 10 11 10 10 10 10 10 9 9 9 9 10 10 10 10 12 9 9 9 8 9 9 9 9 9 8 7 7 7 7 7 7 6 5 5 5 5 5 5 5 2 5 4 3 3 2 3 3 3 3 2 1 1 2 0 1 1 2 3 1 1 4 6 6 8 10 10 10
8 8 8 8 9 10 9 9 9 7 8 7 9 13 11 9 10 8 8 9 10 9 9 9 9 9 9 8 7 10 10 11 11 10 10 11 10 8 9 9 10 9 9 8 8 8 7 8 8 8 8 8 7 7 5 4 3 3 3 3 3 2 2 3 3 2 2 1 1 1 1 2 1 2 2 3 2 1 3 3 3 3 4 5 6
8 7 7 9 9 9 10 10 10 8 7 6 11 13 13 11 9 9 9 9 9 9 9 9 8 8 7 7 7 8 8 8 10 11 11 12 12 10 9 11 11 10 10 9 8 9 8 8 7 8 8 8 7 6 5 4 3 4 3 3 2 2 2 2 2 4 1 1 0 2 3 2 1 4 4 4 3 2 2 4 4 5 7 8 9
8 7 9 9 9 8 8 8 9 8 7 8 12 12 12 12 10 8 8 8 8 8 8 8 7 7 7 7 6 5 7 9 8 9 10 12 12 12 9 11 10 11 8 9 9 8 8 7 7 8 7 6 5 5 4 4 4 3 3 3 3 2 2 3 2 2 3 1 2 3 5 2 3 3 5 5 4 3 3 4 5 6 7 8 10
8 9 9 8 9 8 8 9 8 7 6 11 13 14 14 14 14 10 7 8 8 9 8 8 8 8 7 7 7 5 6 10 7 8 8 8 9 10 8 8 8 9 8 7 6 4 5 6 5 4 5 4 4 4 4 3 2 3 3 3 4 3 3 3 3 2 2 2 2 4 5 3 3 4 5 5 4 4 4 4 7 8 8 8 9
8 8 9 10 8 8 8 8 8 7 7 11 14 15 15 16 15 13 8 8 8 8 8 8 7 8 8 8 8 8 7 8 8 8 8 8 8 7 7 6 6 6 6 6 5 4 4 4 4 3 2 3 2 3 4 3 4 3 3 3 2 2 3 4 3 4 1 4 2 4 7 6 3 3 5 5 4 4 4 4 6 8 9 10 11
9 8 9 9 7 7 7 7 6 6 5 10 13 15 16 16 16 13 6 6 6 6 7 5 6 6 7 6 7 7 10 9 7 7 8 8 8 7 7 7 7 6 5 5 5 4 4 3 4 3 2 3 3 4 4 3 3 4 3 3 2 3 3 4 5 5 5 4 3 2 6 5 4 5 6 5 4 4 4 4 7 8 9 10 12
8 7 6 7 8 8 8 8 8 7 5 8 12 14 15 15 15 9 8 8 8 7 7 7 7 5 4 7 9 8 9 9 7 7 7 8 9 10 9 8 7 6 6 1 4 3 1 2 3 3 2 3 4 0 1 3 3 2 1 1 1 1 3 5 7 5 5 2 4 5 6 6 5 6 6 5 6 7 5 5 4 7 9 9 11
7 7 7 6 6 6 7 7 8 6 5 6 10 12 13 15 12 9 8 7 7 7 7 6 6 6 5 7 8 8 8 7 8 10 9 10 10 10 9 8 6 6 5 3 3 3 2 3 3 4 3 3 3 4 4 2 1 3 4 3 4 5 4 5 5 6 5 4 4 4 5 7 5 6 7 6 6 6 6 6 6 5 9 10 6
7 6 6 6 5 5 6 7 7 7 5 5 10 12 15 15 12 9 8 9 9 8 8 7 7 6 6 7 7 7 7 8 9 10 10 8 9 10 10 9 8 7 5 3 2 2 3 3 3 2 2 3 2 1 1 4 6 5 5 4 4 5 4 5 5 5 4 3 3 3 3 6 5 4 5 4 6 4 3 3 5 5 2 3 5
7 7 7 7 7 6 5 6 6 7 6 5 9 13 15 15 11 10 10 10 10 9 9 9 8 8 8 7 9 9 10 11 13 12 8 5 6 6 7 7 7 7 5 5 4 4 3 3 3 3 3 3 3 3 4 5 4 6 6 5 4 5 5 4 5 4 5 5 1 1 4 4 3 3 3 4 6 4 2 1 1 1 1 2 2
Wind_Direction
203 203 205 211 212 210 208 209 209 215 213 216 213 214 213 214 209 204 208 214 210 212 219 222 246 242 291 299 298 316 313 314 338 347 345 343 351 8 358 341 346 350 353 352 354 354 357 357 357 3 1 355 356 359 345 341 338 324 8 106 59 85 48 21 296 272 209 168 174 167 147 139 144 158 167 188 195 191 179 214 181 171 181 178 182
202 202 204 206 206 207 209 211 212 212 211 217 212 216 213 207 209 205 205 211 217 215 218 223 236 255 268 292 299 301 300 315 330 342 348 347 347 357 8 351 349 354 354 354 355 357 359 3 353 5 3 0 6 7 8 360 348 326 324 2 15 4 12 215 345 322 288 240 162 181 184 173 167 170 177 185 190 182 186 202 194 175 176 180 187
201 199 200 202 204 204 209 209 214 211 209 216 213 212 214 211 207 207 206 210 215 204 221 234 234 237 246 271 295 294 296 312 326 339 345 349 344 359 6 357 345 348 351 356 356 357 1 4 358 360 5 7 4 15 18 17 23 357 354 353 97 185 124 222 71 292 318 327 213 180 181 181 162 188 198 187 192 190 192 208 195 175 171 174 188
200 196 199 201 205 205 204 206 211 209 205 211 210 207 213 212 206 217 215 210 215 207 218 241 238 244 255 260 265 284 298 311 312 335 345 340 342 2 6 356 356 347 346 350 357 357 360 3 3 1 6 11 7 22 22 33 41 39 39 48 30 18 1 354 348 323 320 282 229 185 163 142 156 201 194 187 185 206 207 204 189 183 177 169 186
198 198 193 200 204 201 203 205 208 207 200 203 202 197 206 204 200 202 211 213 211 212 198 238 247 243 251 268 281 273 287 296 302 327 342 334 343 6 6 358 358 357 350 341 348 358 359 3 4 3 3 10 14 28 27 37 39 38 38 29 22 23 23 30 34 346 303 294 354 159 142 137 142 165 173 182 203 211 216 176 158 166 164 179 190
197 196 194 200 204 202 204 205 205 203 193 187 200 204 207 204 199 196 202 208 210 214 211 223 228 231 250 246 269 278 295 282 289 325 325 337 333 8 6 7 360 2 354 342 344 358 0 3 5 4 4 3 18 32 35 37 43 42 48 43 34 42 53 62 82 64 45 104 118 129 131 115 109 123 154 189 202 205 187 160 154 164 179 186 190
200 191 191 199 201 204 204 205 199 194 193 195 200 199 207 204 199 202 197 209 214 209 217 230 226 226 248 260 263 277 265 271 277 278 311 327 322 1 9 13 4 5 356 1 348 357 356 354 360 7 3 4 7 30 35 40 48 48 54 53 48 63 54 61 64 67 72 64 62 86 115 103 100 107 108 151 177 186 172 154 148 163 175 187 182
210 193 192 197 202 203 201 199 192 187 196 190 197 200 203 206 203 205 198 206 207 211 213 230 224 233 238 262 268 265 270 279 278 268 316 303 332 351 14 19 14 5 360 359 355 347 350 352 349 0 9 6 9 23 35 38 44 51 53 56 53 64 93 91 88 74 71 78 74 46 87 93 111 127 106 145 196 181 164 150 149 158 170 171 157
209 208 196 198 201 202 199 192 185 190 189 191 196 203 198 200 201 206 214 209 206 213 212 221 227 220 228 248 257 256 261 271 278 283 267 283 312 339 10 23 22 355 15 2 356 353 350 347 345 357 14 8 13 18 19 37 51 51 53 56 57 59 59 63 69 69 66 71 83 78 75 88 94 92 97 138 145 147 149 149 149 155 154 156 155
207 210 211 202 200 199 195 186 182 187 191 191 198 200 200 199 202 198 209 213 209 211 213 218 215 224 230 238 242 249 257 259 266 280 262 284 283 339 354 21 27 20 14 8 358 357 357 4 359 358 18 9 11 12 16 15 44 53 60 68 72 69 68 68 66 63 60 64 69 79 76 72 78 84 88 93 102 126 142 149 154 155 157 154 149
208 207 208 202 197 196 194 184 184 187 190 191 195 194 196 199 205 189 198 216 223 213 217 210 208 224 240 240 236 242 252 248 261 254 265 244 290 302 310 10 33 30 22 10 6 356 1 9 18 4 6 357 4 12 13 16 20 42 54 60 67 68 65 62 61 64 64 62 68 74 78 72 72 76 78 86 118 140 147 141 145 147 147 151 137
205 208 207 206 201 198 194 182 187 188 191 192 195 192 193 195 204 192 185 194 227 217 203 213 232 242 246 241 234 233 233 236 234 243 245 227 248 270 317 354 30 38 31 17 13 4 6 10 16 12 356 356 356 7 7 13 16 26 42 46 52 56 57 57 58 58 59 58 58 65 75 80 75 78 75 64 80 132 140 133 112 107 120 129 121
204 205 209 206 205 200 191 185 188 191 193 197 195 191 191 193 197 193 187 193 202 204 196 212 238 252 227 234 234 213 220 221 233 231 229 232 234 249 284 323 30 26 36 21 18 17 12 15 13 14 13 10 10 11 5 16 16 18 33 43 50 52 55 57 60 60 59 59 59 59 64 69 71 68 65 59 62 84 114 104 92 88 94 95 106
203 205 208 203 201 199 193 186 187 192 195 194 190 185 180 187 187 187 195 199 205 188 181 187 225 240 248 223 207 178 192 209 224 228 226 225 226 243 269 314 7 23 34 14 21 19 19 18 18 18 17 12 11 6 20 26 18 9 22 34 46 54 55 56 56 58 59 59 59 60 62 60 64 66 68 68 74 74 81 86 91 97 95 93 98
204 203 206 206 201 197 194 186 186 186 186 190 187 187 187 190 188 193 181 199 208 172 183 203 236 196 245 291 232 211 159 193 203 220 213 212 194 208 202 286 21 18 24 5 19 15 14 18 24 22 11 7 5 354 8 17 10 1 11 25 37 51 57 58 59 59 60 61 62 62 61 60 59 62 65 70 69 75 82 86 95 96 98 105 105
206 205 208 208 200 198 194 187 185 186 189 189 188 190 187 190 190 198 187 180 200 189 197 201 227 178 210 224 92 282 199 148 128 123 185 203 202 204 192 230 195 164 58 37 6 353 6 20 23 26 3 2 360 347 6 7 4 358 18 17 45 50 56 63 63 61 60 59 61 63 67 67 63 66 67 69 77 79 86 91 103 121 128 130 133
208 206 208 205 201 199 195 186 182 187 190 192 190 192 187 190 189 193 193 195 186 184 183 198 217 263 302 173 183 213 223 82 165 114 152 177 196 204 178 216 194 180 150 128 304 347 354 20 24 27 8 360 3 347 1 10 11 12 29 16 33 54 59 62 64 66 64 61 60 62 65 67 68 66 68 71 76 82 89 109 122 121 124 131 139
201 202 204 203 203 200 194 184 185 184 190 194 190 185 188 192 190 194 196 204 191 175 176 189 210 224 274 325 347 347 66 120 246 138 127 52 107 182 188 184 180 197 196 187 155 20 20 1 11 32 17 4 348 342 348 9 9 22 23 12 25 51 56 60 66 67 66 64 61 63 65 67 67 67 69 72 76 79 84 82 83 97 122 130 142
199 198 200 202 202 199 190 189 186 185 186 191 191 189 188 192 184 195 198 196 193 190 185 178 181 223 218 281 333 347 346 306 126 140 158 134 148 174 175 176 190 202 201 197 184 225 176 307 360 20 50 4 353 339 338 354 1 9 18 5 16 55 57 63 62 63 65 64 62 61 62 66 68 69 67 71 77 78 79 84 93 83 90 149 145
201 200 198 199 198 192 189 188 186 186 183 192 193 190 186 185 187 194 196 195 196 198 189 174 183 196 192 201 202 198 46 60 350 332 15 141 149 130 84 203 225 214 205 196 198 205 240 232 289 324 78 52 6 341 333 345 360 17 20 360 20 40 64 66 71 71 65 64 64 64 64 64 65 68 70 70 74 78 80 85 89 87 79 69 119
204 204 204 201 193 189 184 185 185 186 186 195 197 191 188 181 182 189 195 197 198 203 195 186 191 191 164 194 200 208 195 180 115 240 221 205 175 159 138 157 197 174 198 198 195 202 224 254 283 295 357 81 27 345 335 345 5 16 16 360 10 27 47 60 70 76 75 69 64 63 64 65 66 62 66 71 76 79 82 88 88 91 92 80 90
201 207 206 202 188 187 185 188 189 189 189 196 194 188 186 186 185 190 193 194 197 200 204 191 192 196 182 176 188 186 198 197 208 193 212 262 260 162 120 32 178 138 157 176 215 205 196 207 227 234 241 194 141 98 332 336 12 4 8 358 6 19 35 50 63 68 71 71 68 65 62 63 65 64 64 71 74 77 78 79 88 93 98 105 94
192 202 206 206 190 191 191 192 191 190 188 192 194 190 189 187 185 189 192 194 196 195 198 201 193 198 192 192 196 193 195 194 192 191 199 181 188 226 200 190 314 295 133 27 292 271 233 193 203 215 219 209 160 168 227 13 18 5 337 18 11 14 35 51 64 71 77 72 66 66 67 66 65 65 64 69 78 81 80 78 75 84 102 107 111
189 193 198 196 189 192 191 188 191 191 192 194 195 190 186 186 185 190 195 197 197 193 194 194 193 200 199 207 210 208 215 219 196 188 195 202 210 207 192 152 214 221 108 308 249 260 249 230 202 200 202 207 188 190 170 260 89 33 349 29 18 12 33 42 51 77 80 78 76 67 63 62 63 62 65 71 69 78 84 82 77 83 89 90 99
192 194 195 190 189 189 188 192 193 195 191 191 191 185 185 186 189 190 193 191 195 193 196 200 192 201 200 204 216 211 217 219 205 200 204 206 207 221 151 133 265 238 141 289 323 260 251 233 241 189 185 202 198 206 197 265 11 40 350 41 25 17 18 30 35 34 56 72 71 71 68 63 61 58 61 64 77 78 79 82 86 82 77 84 78
189 197 189 187 191 193 190 193 194 189 188 190 188 186 185 188 189 190 192 192 193 191 201 196 193 201 202 201 206 211 215 209 202 204 200 191 202 213 194 173 195 254 232 228 155 249 149 132 104 123 196 186 180 196 220 22 126 31 354 314 59 27 22 22 24 26 35 39 68 67 67 71 68 67 66 64 65 68 75 77 76 83 79 77 82
193 191 183 185 189 190 191 191 191 188 186 187 187 185 186 190 190 191 193 192 192 190 199 193 192 196 202 206 202 209 210 201 202 208 206 208 209 198 205 211 192 198 210 191 194 236 243 105 65 100 85 99 150 178 198 173 65 38 333 291 91 74 26 22 19 21 20 25 34 34 58 64 75 72 67 71 62 65 65 62 67 79 90 97 111
188 181 183 181 185 189 191 194 190 190 189 189 185 187 185 189 190 191 193 184 187 191 197 195 198 196 200 205 207 209 206 201 201 207 208 209 212 203 204 215 224 214 173 214 194 170 138 169 111 70 96 109 102 122 107 224 155 113 256 291 275 125 68 24 22 19 14 11 12 18 18 52 69 68 82 79 79 75 68 58 46 42 45 158 170
183 177 176 182 186 190 192 193 193 192 190 189 187 188 182 190 193 190 194 185 191 193 198 198 201 196 200 199 207 208 202 195 198 207 205 204 210 208 207 211 209 236 215 208 190 176 171 223 168 114 105 97 99 100 154 200 102 186 277 262 291 270 79 44 29 20 14 8 3 4 9 15 22 61 86 100 103 88 74 79 67 54 22 344 263
181 172 178 181 188 191 194 193 192 191 190 188 188 188 184 194 195 194 194 182 189 195 199 198 197 193 196 197 204 213 198 189 199 201 202 201 205 207 207 214 219 222 226 234 205 179 154 178 258 133 144 113 119 108 75 141 97 241 211 245 270 350 19 11 45 25 10 3 358 356 360 2 9 14 10 332 276 116 90 63 51 38 28 13 2
182 176 182 185 187 188 195 193 191 191 191 191 189 190 189 195 194 195 191 185 189 195 195 194 196 191 192 196 199 210 195 191 195 195 198 198 204 203 208 211 211 224 232 226 249 178 203 195 173 98 118 111 99 151 163 147 131 210 237 272 250 45 333 329 53 43 17 357 354 355 354 356 357 359 360 10 10 308 269 248 204 357 347 2 30
185 182 185 185 187 187 192 194 191 190 191 192 189 191 189 199 193 195 190 185 192 195 194 192 189 192 192 196 199 204 195 188 194 194 193 197 200 200 203 204 208 216 221 229 230 231 176 182 137 132 149 258 329 320 317 134 132 188 167 207 87 349 247 251 138 106 354 349 340 349 348 352 353 351 355 359 358 6 9 346 311 299 5 37 43
184 187 189 188 188 190 188 192 191 189 190 190 188 190 191 197 198 197 186 184 193 199 195 191 191 191 196 198 200 201 192 190 193 191 192 190 191 201 198 200 206 201 212 216 226 238 205 184 195 201 116 356 282 154 260 237 178 135 158 138 152 147 211 248 261 195 235 300 326 329 334 340 341 347 354 352 357 1 354 356 3 10 20 57 75
190 191 191 189 190 190 190 191 192 191 191 190 186 189 192 194 195 190 186 186 194 199 196 194 190 190 194 198 202 195 190 193 192 192 189 184 189 194 194 196 201 202 202 211 222 230 242 150 198 165 159 165 247 161 260 270 201 91 121 117 124 75 18 305 267 197 140 326 329 330 320 307 318 330 334 339 341 338 336 347 346 357 18 360 107
194 196 194 192 190 190 191 192 191 193 192 191 189 190 193 193 195 191 191 189 192 196 198 198 189 185 191 199 201 190 174 191 197 198 190 189 187 195 195 193 201 201 195 209 214 223 237 244 183 163 187 174 224 184 165 127 30 24 331 45 45 38 46 327 303 307 116 155 296 310 312 314 320 317 312 318 320 322 319 313 313 315 319 331 319
192 196 199 195 191 191 193 193 193 191 191 191 189 193 193 194 196 195 193 194 195 199 199 196 189 187 193 193 201 191 177 192 195 195 194 191 189 196 196 195 198 197 195 196 215 227 232 253 207 196 168 177 186 162 102 143 257 264 360 351 249 262 274 217 283 296 67 42 309 286 286 295 300 304 309 307 304 305 305 303 299 303 311 316 311
193 192 196 197 194 193 195 194 193 193 192 191 190 192 195 196 197 194 193 194 198 200 201 198 193 189 191 196 193 187 181 192 192 194 190 190 191 193 198 192 194 196 187 191 201 216 225 233 247 182 140 182 166 213 150 249 177 170 162 208 243 289 276 276 269 262 274 269 257 253 255 256 261 264 276 283 287 287 288 291 295 299 300 298 300
195 196 193 194 197 199 198 197 194 193 191 193 193 192 194 194 197 197 194 194 197 199 201 198 196 193 192 195 192 188 187 192 193 191 188 190 190 195 195 192 189 187 187 182 193 201 218 231 244 255 205 194 190 197 143 186 243 241 210 178 208 211 230 241 230 206 341 351 343 257 222 237 207 220 235 255 266 275 279 284 288 290 292 293 292
196 195 197 195 196 199 199 196 196 193 191 192 192 191 193 194 196 197 196 194 194 197 200 199 197 193 195 194 195 192 193 196 194 190 187 188 190 192 191 189 184 181 183 184 184 191 203 216 229 252 267 245 203 230 141 183 167 267 262 271 246 156 189 207 283 186 165 258 207 204 257 301 314 297 289 290 281 269 274 284 285 276 273 273 280
204 200 198 197 194 197 199 198 196 192 190 189 191 191 192 193 193 198 196 192 194 195 197 199 198 197 196 196 198 196 196 195 197 193 186 188 185 190 189 187 184 184 188 184 179 191 196 210 220 223 235 251 222 197 142 176 201 205 207 227 238 209 190 164 229 276 273 256 293 245 187 218 237 235 240 247 247 253 258 263 256 259 261 261 258
208 206 202 196 193 195 200 198 195 193 195 194 192 188 189 191 192 193 194 194 193 194 196 199 199 197 197 200 201 200 194 194 198 195 188 181 179 187 187 184 183 184 188 182 184 186 192 198 207 210 216 226 225 200 192 193 207 221 145 185 226 234 238 262 244 219 253 284 330 280 270 323 306 316 332 321 316 260 251 228 265 251 252 260 264
208 203 200 197 199 197 196 198 199 196 200 200 190 187 186 184 186 187 188 192 191 193 191 194 197 197 198 197 197 191 185 191 195 199 192 191 196 195 180 183 181 186 185 180 184 189 189 194 198 189 201 217 210 203 211 203 149 128 166 194 224 199 194 253 239 169 137 156 289 310 328 108 354 324 286 291 290 194 303 284 304 329 314 293 279
201 195 197 199 200 197 198 196 198 201 203 202 185 191 194 188 183 184 187 190 191 193 193 193 192 190 194 197 196 181 186 190 198 199 196 195 198 208 187 183 187 186 181 185 191 188 192 199 192 192 205 209 202 191 201 178 180 195 207 202 223 231 248 268 265 136 123 208 170 316 304 129 5 304 298 283 287 277 268 276 288 290 278 279 277
197 192 199 203 198 196 197 196 198 197 201 176 176 187 190 191 191 187 184 184 185 191 191 192 188 182 183 182 186 171 192 193 193 195 199 197 198 204 198 191 196 201 203 192 183 188 200 199 198 203 202 210 183 177 184 182 192 186 192 207 219 232 241 249 258 286 110 227 324 306 297 201 174 254 277 274 274 275 260 282 286 266 259 256 267
180 188 196 192 197 197 196 198 200 192 196 171 181 183 187 186 188 193 188 186 182 189 187 186 184 179 179 177 179 182 192 185 187 189 187 192 200 198 195 193 204 208 213 233 251 237 196 215 215 203 198 183 169 184 175 172 158 200 180 200 207 208 232 242 262 284 128 128 333 296 288 282 194 257 271 271 263 262 272 235 247 264 259 255 262
188 190 190 191 189 190 194 196 193 186 193 173 183 183 184 183 181 187 191 180 181 183 182 182 180 180 179 179 176 193 188 182 194 187 180 176 176 179 184 188 194 200 220 225 237 278 286 240 235 227 153 156 170 138 157 164 183 198 206 226 207 245 246 261 303 298 340 133 296 307 290 280 260 253 275 284 274 252 239 247 265 274 272 273 276
191 193 190 186 183 183 185 190 184 185 198 174 185 182 182 180 177 183 177 159 168 182 185 170 174 175 173 169 173 179 188 190 187 181 174 171 162 170 182 190 195 191 192 198 210 211 212 231 243 242 90 116 142 117 136 165 214 239 268 275 289 280 295 331 295 271 270 241 203 211 268 289 299 281 274 284 297 287 278 238 226 249 262 272 275
196 192 186 188 185 185 184 185 187 190 194 189 189 182 178 175 164 178 175 174 178 170 166 176 185 168 152 178 188 182 180 183 155 158 160 158 172 176 176 178 181 186 196 180 31 30 327 250 237 244 256 65 67 108 188 202 208 207 127 199 201 230 253 261 266 276 270 239 207 231 256 275 287 283 288 294 291 286 292 295 222 232 260 257 264
171 173 169 166 163 157 156 168 169 160 156 179 184 177 170 157 154 165 153 142 132 132 125 127 134 149 146 166 171 168 166 166 150 155 144 164 175 172 172 168 167 174 169 118 93 86 78 56 52 45 54 74 117 126 133 160 227 202 191 194 213 206 209 229 248 255 258 254 212 211 259 277 272 275 284 288 289 290 295 290 297 236 238 263 279
164 156 140 131 128 138 147 151 159 143 131 147 166 165 155 151 151 145 141 136 130 124 121 114 116 107 76 83 119 131 127 124 135 143 152 160 167 170 168 161 161 157 115 112 114 85 43 56 59 53 49 38 50 59 152 169 183 187 194 203 211 204 220 230 249 255 265 268 251 191 244 247 270 272 281 287 287 266 256 272 277 284 290 255 253
139 134 135 130 122 114 111 111 96 110 114 117 143 150 148 148 148 149 145 143 137 135 127 121 117 115 108 85 91 108 120 126 130 134 138 141 129 135 139 136 146 155 133 126 124 132 141 134 126 140 131 132 166 171 137 127 147 190 210 228 233 229 236 239 246 257 267 256 327 123 245 263 267 267 275 297 285 283 294 331 333 318 318 337 343